Hourly Data Report for July 01, 2021

LYNN LAKE
MANITOBA
Current Station Operator: NAVCAN

56°51'50.000" N
101°04'34.000" W
356.60 m
5061645
71078
YYL

Download Data

Hourly Data (July 2021)
Hourly Data Report for July 1, 2021
TIME
LST
Temp Definition
°C
Dew Point Definition
°C
Rel Hum Definition
%
Precip. Amount Definition
mm

Wind Dir Definition
10's deg

Wind Spd Definition
km/h
Visibility Definition
km
Stn Press Definition
kPa
Hmdx Definition


Wind Chill Definition


Weather Definition


00:00 24.5 17.4 64 0.0 20 17 16.1 97.31 30   LegendNANA
01:00 23.6 17.4 68 0.0 21 15 16.1 97.31 29   LegendNANA
02:00 23.3 17.4 69 0.0 21 18 16.1 97.32 29   LegendNANA
03:00 23.0 17.1 69 0.0 22 17 16.1 97.30 28   LegendNANA
04:00 22.8 17.1 70 0.0 22 21 16.1 97.29 28   LegendNANA
05:00 22.4 17.0 71 0.0 22 21 16.1 97.28 28   LegendNANA
06:00 22.7 17.2 71 0.0 22 17 16.1 97.26 28   LegendNANA
07:00 23.7 17.5 68 0.0 23 17 16.1 97.28 29   LegendNANA
08:00 26.3 18.0 60 0.0 24 15 16.1 97.28 32   LegendNANA
09:00 28.8 17.3 49 0.0 24 18 16.1 97.31 34   LegendNANA
10:00 31.0 16.6 41 0.0 25 26 16.1 97.26 36   LegendNANA
11:00 33.0 15.5 34 0.0 25 26 16.1 97.22 37   LegendNANA
12:00 34.9 14.0 28 0.0 29 24 16.1 97.22 38   LegendNANA
13:00 35.4 14.1 27 0.0 25 18 16.1 97.17 39   LegendNANA
14:00 36.0 12.6 24 0.0 27 22 16.1 97.12 39   LegendNANA
15:00 37.0 12.2 22 0.0 28 24 16.1 97.07 39   LegendNANA
16:00 37.0 12.9 23 0.0 28 18 16.1 97.06 40   LegendNANA
17:00 35.9 14.8 28 0.0 22 18 16.1 97.04 40   LegendNANA
18:00 35.4 14.5 28 0.0 23 22 16.1 97.02 39   LegendNANA
19:00 34.7 15.3 31 0.0 26 18 16.1 97.00 39   LegendNANA
20:00 33.2 17.0 37 0.0 23 13 16.1 97.02 38   LegendNANA
21:00 30.5 17.5 45 0.0 23 11 16.1 97.03 36   LegendNANA
22:00 28.3 17.5 51 0.0 23 8 16.1 97.03 34   LegendNANA
23:00 25.6 17.5 60 0.0 24 11 16.1 97.04 31   LegendNANA

Notes on Data Quality.

Legend

  • E = Estimated
  • M = Missing
  • NA = Not Available*
  • [empty] = Indicates an unobserved value
Date modified: